FW3305 Weather Reports


time (UTC)temp
F
wind
direction
speed
knots
gust
knots
rain 1hr
in
rain 24hr
in
rain mn
in
humidity
%
barometer
mb
20260505083419 57 349 1.7 7.0 0.00 0.08 0.00 49 1008.8
20260505083121 57 329 0.0 7.0 0.00 0.08 0.00 50 1008.1
20260505082843 57 305 1.7 7.0 0.00 0.08 0.00 49 1008.5
20260505082409 57 351 0.9 4.3 0.00 0.08 0.00 49 1008.7
20260505081855 58 355 1.7 7.8 0.00 0.08 0.00 49 1008.8
20260505081623 57 360 1.7 7.8 0.00 0.08 0.00 48 1008.2
20260505081341 58 340 1.7 7.8 0.00 0.08 0.00 49 1008.6
20260505080849 58 315 1.7 6.1 0.00 0.08 0.00 48 1008.3
20260505080353 58 19 1.7 7.0 0.00 0.08 0.00 47 1008.1
20260505080149 57 350 0.9 7.0 0.00 0.08 0.00 46 1007.3
20260505075841 58 329 1.7 7.0 0.00 0.09 0.00 46 1007.6
20260505075347 58 355 1.7 7.8 0.00 0.09 0.00 46 1007.3
20260505074854 58 96 2.6 10.4 0.00 0.09 0.00 46 1007.2
20260505074618 58 19 1.7 10.4 0.00 0.09 0.00 46 1006.6
20260505074341 58 5 3.5 10.4 0.00 0.09 0.00 46 1007.5
20260505073908 58 346 0.9 7.0 0.00 0.09 0.00 46 1007.5
20260505073352 58 325 2.6 7.8 0.00 0.09 0.00 45 1007.3
20260505073118 58 342 1.7 7.8 0.00 0.09 0.00 46 1006.8
20260505072919 58 350 2.6 8.7 0.00 0.09 0.00 45 1007.4
20260505072343 58 275 0.9 8.7 0.00 0.09 0.00 46 1007.5
20260505071849 58 5 0.9 3.5 0.00 0.09 0.00 46 1007.8
20260505071613 58 315 0.9 3.5 0.00 0.09 0.00 46 1007.2
20260505071355 59 324 0.9 3.5 0.00 0.09 0.00 46 1007.7
20260505070840 59 341 0.0 5.2 0.00 0.09 0.00 47 1007.6
20260505070346 59 341 2.6 5.2 0.00 0.09 0.00 44 1007.3
20260505070141 58 73 1.7 4.3 0.00 0.09 0.00 45 1006.6
20260505065853 59 348 1.7 5.2 0.00 0.09 0.00 46 1007.4
20260505065358 59 316 1.7 5.2 0.00 0.09 0.00 45 1007.3
20260505064843 59 355 1.7 4.3 0.00 0.09 0.00 45 1007.1
20260505064610 59 5 0.9 8.7 0.00 0.09 0.00 46 1006.6
20260505064348 59 318 0.9 8.7 0.00 0.09 0.00 46 1007.3
20260505063855 59 48 1.7 8.7 0.00 0.09 0.00 46 1007.1
20260505063400 60 355 0.9 7.8 0.00 0.09 0.00 47 1007.0
20260505063104 59 315 0.0 5.2 0.00 0.09 0.00 48 1006.5
20260505062846 60 344 0.9 5.2 0.00 0.09 0.00 48 1007.3
20260505062354 60 333 1.7 3.5 0.00 0.09 0.00 49 1007.3
20260505061900 61 42 0.9 2.6 0.00 0.09 0.00 50 1007.2
20260505061623 60 43 0.0 3.5 0.00 0.09 0.00 49 1006.5
20260505061344 61 335 0.0 3.5 0.00 0.09 0.00 52 1007.1
20260505060912 61 322 0.9 5.2 0.00 0.09 0.00 50 1006.7
20260505060357 61 9 0.9 2.6 0.00 0.09 0.00 51 1006.7
20260505060134 61 351 0.0 1.7 0.00 0.09 0.00 51 1006.1
20260505055846 61 351 0.0 4.3 0.00 0.14 0.00 52 1006.7
20260505055351 62 351 0.9 7.0 0.00 0.14 0.00 49 1006.5
20260505054920 62 297 2.6 7.0 0.00 0.14 0.00 49 1006.3
20260505054623 61 343 1.7 7.0 0.00 0.14 0.00 49 1005.8
20260505054345 62 208 1.7 4.3 0.00 0.14 0.00 52 1006.4
20260505053852 62 5 1.7 4.3 0.00 0.14 0.00 53 1006.1
20260505053357 62 360 0.0 3.5 0.00 0.14 0.00 55 1005.8
20260505053121 62 360 0.0 3.5 0.00 0.14 0.00 55 1004.9
20260505052843 62 350 0.0 2.6 0.00 0.14 0.00 54 1005.6
20260505052348 63 355 0.0 5.2 0.00 0.14 0.00 55 1005.6
20260505051916 63 10 0.9 5.2 0.00 0.14 0.00 53 1005.4
20260505051503 62 44 0.0 7.0 0.00 0.14 0.00 54 1004.6
20260505051403 63 44 1.7 7.0 0.00 0.14 0.00 54 1005.2
20260505050846 63 348 1.7 7.0 0.00 0.14 0.00 55 1005.1
20260505050352 63 9 1.7 7.0 0.00 0.14 0.00 54 1005.0
20260505050148 62 5 0.9 7.0 0.00 0.14 0.00 54 1004.3
20260505041612 62 360 2.6 9.6 0.02 0.14 0.14 58 1003.9
20260505041350 63 327 1.7 9.6 0.05 0.14 0.14 59 1004.5
20260505040856 63 89 2.6 10.4 0.07 0.14 0.14 61 1005.0
20260505040341 63 108 4.3 10.4 0.07 0.14 0.14 62 1004.8
20260505040010 63 53 0.9 4.3 0.07 0.14 0.14 69 1004.0
20260505035909 64 77 0.0 4.3 0.07 0.14 0.14 69 1004.9
20260505035355 64 67 0.9 4.3 0.07 0.14 0.14 68 1004.9
20260505034900 65 336 0.0 0.9 0.07 0.14 0.14 71 1004.8
20260505034603 65 335 0.0 0.9 0.07 0.14 0.14 71 1004.1
20260505034345 66 335 0.0 0.0 0.07 0.14 0.14 70 1004.6
20260505033913 66 335 0.0 1.7 0.06 0.13 0.13 69 1004.2
20260505033357 67 335 0.0 1.7 0.06 0.13 0.13 68 1003.9
20260505033123 67 338 0.0 1.7 0.06 0.13 0.13 69 1003.1
20260505032843 67 338 0.0 6.1 0.06 0.13 0.13 68 1003.6
20260505032411 68 340 1.7 7.8 0.05 0.12 0.12 67 1003.3
20260505031855 70 14 2.6 10.4 0.05 0.12 0.12 64 1003.4
20260505031622 71 355 2.6 10.4 0.04 0.11 0.11 63 1002.6
20260505031341 72 355 1.7 10.4 0.02 0.09 0.09 63 1003.6
20260505030848 73 303 3.5 8.7 0.00 0.07 0.07 56 1003.1
20260505030352 73 340 2.6 5.2 0.00 0.07 0.07 62 1003.2
20260505030150 73 304 0.9 6.1 0.00 0.07 0.07 63 1002.6
20260505025840 73 261 0.9 4.3 0.00 0.07 0.07 63 1002.6
20260505025358 73 246 1.7 4.3 0.00 0.07 0.07 63 1002.4
20260505024906 73 245 0.9 2.6 0.00 0.07 0.07 62 1002.3
20260505024618 73 245 0.9 2.6 0.00 0.07 0.07 62 1001.4
20260505024351 73 245 0.9 2.6 0.00 0.07 0.07 62 1002.0
20260505023856 73 245 0.9 1.7 0.00 0.07 0.07 62 1002.1
20260505023342 74 245 0.0 1.7 0.00 0.07 0.07 61 1002.1
20260505023120 73 245 0.0 1.7 0.00 0.07 0.07 61 1001.4
20260505022848 74 245 0.0 0.9 0.00 0.07 0.07 61 1001.9
20260505022355 74 245 0.0 1.7 0.00 0.07 0.07 61 1001.9
20260505021840 74 245 0.9 2.6 0.00 0.07 0.07 60 1001.8
20260505021604 73 245 0.0 2.6 0.00 0.07 0.07 60 1001.0
20260505021347 74 245 0.9 2.6 0.00 0.07 0.07 60 1001.7
20260505020914 74 245 0.9 2.6 0.00 0.07 0.07 59 1001.6
20260505020359 74 245 0.0 2.6 0.00 0.07 0.07 58 1001.6
20260505020134 74 245 0.9 2.6 0.00 0.07 0.07 58 1000.8
20260505015847 75 245 0.9 2.6 0.00 0.07 0.07 57 1001.5
20260505015414 75 245 0.0 0.0 0.00 0.07 0.07 57 1001.5
20260505014900 75 245 0.0 0.0 0.00 0.07 0.07 56 1001.3
20260505014606 75 245 0.0 0.0 0.00 0.07 0.07 56 1000.6
20260505014346 75 245 0.0 0.0 0.00 0.07 0.07 56 1001.3
20260505013853 75 245 0.0 0.0 0.00 0.07 0.07 55 1001.3
20260505013358 76 245 0.0 0.0 0.00 0.07 0.07 55 1001.2
20260505013121 75 245 0.0 0.0 0.00 0.07 0.07 55 1000.4
20260505012843 76 245 0.0 0.0 0.00 0.07 0.07 54 1001.2
20260505012348 76 245 0.0 0.9 0.00 0.07 0.07 54 1001.2
20260505011852 76 245 0.0 1.7 0.00 0.07 0.07 53 1001.2
20260505011617 76 245 0.0 1.7 0.00 0.07 0.07 53 1000.5
20260505011358 77 245 0.0 1.7 0.00 0.07 0.07 53 1001.3
20260505010906 77 245 0.0 0.9 0.00 0.07 0.07 52 1001.2
20260505010351 77 245 0.0 1.7 0.00 0.07 0.07 52 1001.2
20260505010021 77 245 0.0 1.7 0.00 0.07 0.07 52 1000.4
20260505005919 77 245 0.0 1.7 0.00 0.07 0.07 52 1001.1
20260505005345 77 245 0.9 1.7 0.00 0.07 0.07 51 1001.0
20260505004851 77 245 0.0 0.9 0.00 0.07 0.07 51 1000.8
20260505004614 77 245 0.0 1.7 0.00 0.07 0.07 50 1000.2
20260505004357 78 245 0.0 1.7 0.00 0.07 0.07 51 1000.8
20260505003841 78 245 0.9 1.7 0.00 0.07 0.07 50 1000.7
20260505003347 78 245 0.9 3.5 0.00 0.07 0.07 50 1000.7
20260505003128 77 245 0.9 3.5 0.00 0.07 0.07 50 1000.1
20260505002852 78 245 0.9 3.5 0.00 0.07 0.07 49 1000.7
20260505002359 78 242 1.7 3.5 0.00 0.07 0.07 49 1000.8
20260505001905 78 242 0.9 2.6 0.00 0.07 0.07 49 1000.9
20260505001608 78 242 0.9 2.6 0.00 0.07 0.07 49 1000.2
20260505001411 79 242 0.0 2.6 0.00 0.07 0.07 49 1000.8
20260505000857 79 242 0.9 2.6 0.00 0.07 0.07 48 1000.7
20260505000344 79 242 0.0 4.3 0.00 0.07 0.07 47 1000.7
20260505000139 79 242 0.9 4.3 0.00 0.07 0.07 48 1000.1
20260504235852 79 242 0.9 4.3 0.00 0.07 0.07 47 1000.7
20260504235357 79 241 1.7 4.3 0.00 0.07 0.07 47 1000.7
20260504234843 79 246 1.7 4.3 0.00 0.07 0.07 47 1000.7
20260504234606 79 246 1.7 5.2 0.00 0.07 0.07 47 1000.1
20260504234348 79 246 1.7 5.2 0.00 0.07 0.07 47 1000.9
20260504233853 79 236 2.6 5.2 0.00 0.07 0.07 47 1000.9
20260504233358 79 259 1.7 6.1 0.00 0.07 0.07 48 1000.9
20260504233122 79 240 2.6 6.1 0.00 0.07 0.07 48 1000.3
20260504232844 79 242 1.7 4.3 0.00 0.07 0.07 48 1001.0
20260504232350 80 232 0.9 2.6 0.00 0.07 0.07 48 1001.2
20260504231855 80 225 0.9 7.0 0.00 0.07 0.07 49 1001.3
20260504231501 79 250 2.6 7.0 0.00 0.07 0.07 47 1000.7
20260504231400 80 279 1.7 7.0 0.00 0.07 0.07 48 1001.4
20260504230846 80 241 1.7 7.0 0.00 0.07 0.07 49 1001.3
20260504230352 80 257 2.6 7.0 0.00 0.07 0.07 48 1001.3
20260504230020 79 238 0.9 4.3 0.00 0.07 0.07 48 1000.6
20260504225919 80 238 1.7 4.3 0.00 0.07 0.07 47 1001.5
20260504225345 80 173 1.7 4.3 0.00 0.07 0.07 47 1001.4
20260504224851 80 222 1.7 4.3 0.00 0.07 0.07 47 1001.4
20260504224629 79 257 1.7 6.1 0.00 0.07 0.07 47 1000.8
20260504224357 80 254 0.9 6.1 0.00 0.07 0.07 46 1001.5
20260504223904 80 221 2.6 7.0 0.00 0.07 0.07 46 1001.6
20260504223349 80 250 2.6 7.0 0.00 0.07 0.07 46 1001.6
20260504223121 79 211 1.7 6.1 0.00 0.07 0.07 46 1000.9
20260504222854 80 288 1.7 6.1 0.00 0.07 0.07 47 1001.5
20260504222340 80 229 2.6 6.1 0.00 0.07 0.07 46 1001.6
20260504221907 80 243 2.6 7.8 0.00 0.07 0.07 46 1001.7
20260504221611 79 247 1.7 7.8 0.00 0.07 0.07 47 1001.0
20260504221352 80 28 2.6 7.8 0.00 0.07 0.07 46 1001.8
20260504220858 80 240 1.7 6.1 0.00 0.07 0.07 46 1001.7
20260504220345 80 247 0.9 6.1 0.00 0.07 0.07 47 1001.8
20260504220140 79 270 1.7 6.1 0.00 0.07 0.07 46 1001.1
20260504215853 80 248 3.5 6.1 0.00 0.07 0.07 46 1001.8
20260504215357 80 237 1.7 7.0 0.00 0.07 0.07 47 1001.8
20260504214842 80 238 1.7 7.8 0.00 0.07 0.07 46 1001.7
20260504214605 79 205 2.6 7.8 0.00 0.07 0.07 46 1001.0
20260504214408 80 232 2.6 9.6 0.00 0.07 0.07 45 1001.7
20260504213852 80 244 4.3 9.6 0.00 0.07 0.07 46 1001.6
20260504213358 80 250 2.6 8.7 0.00 0.07 0.07 45 1001.7
20260504213005 80 246 1.7 7.0 0.00 0.07 0.07 46 1001.1
20260504212903 80 147 3.5 7.0 0.00 0.07 0.07 45 1001.7
20260504212349 80 244 2.6 7.0 0.00 0.07 0.07 46 1001.7
20260504211854 80 252 2.6 7.0 0.00 0.07 0.07 47 1001.8
20260504211619 80 252 3.5 6.1 0.00 0.07 0.07 45 1001.3
20260504211341 80 223 2.6 9.6 0.00 0.07 0.07 45 1001.9
20260504210846 80 245 3.5 9.6 0.00 0.07 0.07 46 1001.9
20260504210351 80 307 0.9 7.8 0.00 0.07 0.07 48 1002.1
20260504210147 80 239 1.7 7.8 0.00 0.07 0.07 46 1001.4
20260504205859 80 231 0.9 7.8 0.00 0.07 0.07 48 1002.1
20260504205403 80 215 2.6 7.8 0.00 0.07 0.07 47 1001.9
20260504204848 80 219 2.6 7.0 0.00 0.07 0.07 47 1002.1
20260504204612 80 233 0.9 7.0 0.00 0.07 0.07 48 1001.4
20260504204416 80 214 2.6 8.7 0.00 0.07 0.07 46 1001.9
20260504203840 80 224 3.5 8.7 0.00 0.07 0.07 46 1001.9
20260504203346 80 240 1.7 6.1 0.00 0.07 0.07 47 1002.0
20260504203110 80 211 1.7 5.2 0.00 0.07 0.07 48 1001.3
20260504202851 80 186 0.9 6.1 0.00 0.07 0.07 47 1002.0
20260504202358 80 223 1.7 7.0 0.00 0.07 0.07 47 1002.1
20260504201842 80 236 1.7 7.8 0.00 0.07 0.07 47 1002.2
20260504201611 79 238 1.7 7.8 0.00 0.07 0.07 48 1001.6
20260504201348 80 243 2.6 7.8 0.00 0.07 0.07 47 1002.4
20260504200915 80 228 3.5 7.8 0.00 0.07 0.07 46 1002.5
20260504200359 80 241 2.6 7.8 0.00 0.07 0.07 47 1002.5
20260504200015 79 250 0.9 7.8 0.00 0.07 0.07 48 1001.9
20260504195908 79 248 2.6 7.8 0.00 0.07 0.07 47 1002.6
20260504195352 79 232 1.7 7.8 0.00 0.07 0.07 48 1002.6
20260504194858 79 192 2.6 9.6 0.00 0.07 0.07 46 1002.7
20260504194624 79 243 2.6 9.6 0.00 0.07 0.07 46 1002.1
20260504194343 79 188 3.5 9.6 0.00 0.07 0.07 47 1002.7
20260504193909 79 238 2.6 11.3 0.00 0.07 0.07 47 1002.5
20260504193414 79 223 3.5 11.3 0.00 0.07 0.07 46 1002.6
20260504193119 78 237 0.9 5.2 0.00 0.07 0.07 50 1002.0
20260504192921 79 236 1.7 8.7 0.00 0.07 0.07 48 1002.7
20260504192345 78 240 1.7 8.7 0.00 0.07 0.07 49 1002.7
20260504191912 78 243 4.3 8.7 0.00 0.07 0.07 47 1002.9
20260504191631 78 207 1.7 8.7 0.00 0.07 0.07 48 1002.2
20260504191357 78 238 2.6 8.7 0.00 0.07 0.07 47 1002.8
20260504190842 79 232 4.3 10.4 0.00 0.07 0.07 47 1002.9
20260504190347 79 244 2.6 10.4 0.00 0.07 0.07 49 1002.7
20260504190143 78 257 1.7 7.8 0.00 0.07 0.07 49 1002.2
20260504185856 78 195 1.7 7.8 0.00 0.07 0.07 49 1002.8
20260504185341 78 242 1.7 7.0 0.00 0.07 0.07 49 1002.8
20260504184847 78 236 2.6 8.7 0.00 0.07 0.07 48 1002.8
20260504184610 78 252 1.7 8.7 0.00 0.07 0.07 48 1002.1
20260504184352 78 314 2.6 8.7 0.00 0.07 0.07 48 1002.7
20260504183919 78 236 2.6 7.0 0.00 0.07 0.07 49 1002.7
20260504183343 78 150 3.5 11.3 0.00 0.07 0.07 48 1002.7
20260504183108 78 239 2.6 11.3 0.00 0.07 0.07 51 1002.1
20260504182848 78 247 3.5 11.3 0.00 0.07 0.07 48 1002.5
20260504182353 78 259 2.6 7.8 0.00 0.07 0.07 49 1002.6
20260504181858 78 227 1.7 9.6 0.00 0.07 0.07 48 1002.8
20260504181622 78 246 2.6 9.6 0.00 0.07 0.07 49 1002.4
20260504181343 78 238 4.3 10.4 0.00 0.07 0.07 47 1003.1
20260504180850 78 200 2.6 9.6 0.00 0.07 0.07 47 1003.1
20260504180356 78 222 3.5 9.6 0.00 0.07 0.07 47 1003.2
20260504180005 78 246 3.5 11.3 0.00 0.07 0.07 47 1002.6
20260504175904 78 252 3.5 11.3 0.00 0.07 0.07 48 1003.2
20260504175410 78 223 5.2 11.3 0.00 0.07 0.07 46 1003.2
20260504174854 78 251 1.7 10.4 0.00 0.07 0.07 48 1003.2
20260504174619 77 234 2.6 10.4 0.00 0.07 0.07 49 1002.7
20260504174359 78 248 2.6 9.6 0.00 0.07 0.07 49 1003.3
20260504173847 77 253 2.6 9.6 0.00 0.07 0.07 49 1003.4
20260504173352 77 246 2.6 7.0 0.00 0.07 0.07 48 1003.3
20260504173116 77 244 2.6 7.0 0.00 0.07 0.07 48 1002.7
20260504172857 77 273 3.5 7.0 0.00 0.07 0.07 48 1003.4
20260504172343 77 239 2.6 7.0 0.00 0.07 0.07 50 1003.4
20260504171910 77 249 1.7 8.7 0.00 0.07 0.07 50 1003.5
20260504171613 76 198 1.7 8.7 0.00 0.07 0.07 49 1003.0
20260504171356 77 239 1.7 7.8 0.00 0.07 0.07 49 1003.6
20260504170840 77 252 2.6 10.4 0.00 0.07 0.07 50 1003.7
20260504170346 77 225 3.5 9.6 0.00 0.07 0.07 48 1003.7
20260504170145 76 229 1.7 9.6 0.00 0.07 0.07 50 1003.2
20260504160421 74 244 2.6 8.7 0.00 0.07 0.07 52 1004.2
20260504160136 74 242 2.6 8.7 0.00 0.07 0.07 52 1003.6
20260504150846 70 246 1.7 6.1 0.00 0.07 0.07 60 1004.2
20260504150351 69 254 2.6 6.1 0.00 0.07 0.07 61 1004.3
20260504140855 64 229 2.6 6.1 0.00 0.07 0.07 71 1004.7
20260504140341 63 221 2.6 5.2 0.00 0.07 0.07 72 1004.7
20260504140137 63 244 0.9 6.1 0.00 0.07 0.07 73 1004.3
20260504130356 62 209 0.0 1.7 0.00 0.07 0.07 77 1004.9
20260504130151 61 209 0.0 1.7 0.00 0.07 0.07 77 1004.4
20260504110400 56 253 2.6 7.0 0.00 0.07 0.07 87 1003.6
20260504100351 55 66 0.0 0.9 0.00 0.07 0.07 87 1005.8
20260504100146 54 66 0.0 0.9 0.00 0.07 0.07 87 1005.5
20260504090138 55 159 0.0 1.7 0.01 0.07 0.07 87 1006.3